Temp
-7 -7 -7 -7 -7 -7 -7 -7 -7 -7 -7 -7 -7 -7 -7 -7 -7 -7 -6 -6 -6 -6 -6 -6 -6 -6 -6 -6 -6 -5 -5 -5 -5 -5 -5 -5 -5 -5 -5 -5 -5 -5
-8 -8 -8 -8 -8 -8 -8 -8 -8 -8 -8 -8 -8 -8 -8 -8 -8 -8 -7 -7 -7 -7 -7 -7 -7 -6 -6 -6 -6 -6 -6 -6 -6 -6 -6 -5 -5 -5 -6 -6 -6 -6
-9 -8 -8 -8 -9 -9 -9 -9 -9 -9 -9 -9 -9 -9 -10 -10 -10 -9 -9 -8 -8 -8 -8 -8 -8 -8 -8 -8 -8 -8 -7 -7 -7 -7 -7 -6 -7 -7 -8 -8 -8 -8
-9 -9 -9 -10 -10 -10 -10 -10 -10 -10 -10 -10 -10 -11 -11 -11 -11 -11 -11 -10 -10 -10 -10 -10 -10 -9 -9 -9 -9 -9 -9 -9 -9 -8 -8 -8 -8 -9 -9 -10 -10 -9
-11 -11 -11 -11 -11 -11 -11 -11 -11 -11 -11 -11 -11 -12 -12 -12 -12 -12 -12 -12 -12 -12 -12 -11 -11 -11 -11 -11 -11 -11 -11 -11 -10 -10 -10 -10 -10 -10 -10 -10 -10 -10
-12 -12 -12 -12 -12 -12 -12 -12 -12 -12 -12 -12 -12 -12 -13 -12 -12 -12 -12 -13 -12 -12 -12 -12 -12 -12 -12 -12 -12 -12 -12 -11 -11 -11 -11 -11 -11 -11 -11 -11 -11 -11
-13 -13 -13 -13 -13 -13 -13 -13 -13 -13 -13 -13 -13 -13 -13 -13 -13 -13 -13 -13 -13 -13 -13 -13 -13 -13 -12 -12 -12 -12 -12 -12 -12 -12 -12 -12 -12 -12 -11 -11 -11 -11
-14 -14 -14 -14 -14 -14 -14 -14 -14 -14 -13 -13 -13 -13 -13 -13 -13 -13 -13 -13 -13 -13 -13 -13 -13 -13 -13 -13 -13 -13 -13 -13 -13 -13 -13 -12 -12 -12 -12 -12 -12 -11
-15 -15 -15 -15 -15 -15 -15 -15 -14 -14 -14 -14 -14 -14 -14 -14 -14 -14 -14 -14 -14 -14 -14 -14 -14 -14 -14 -14 -13 -13 -13 -13 -13 -13 -13 -13 -13 -13 -12 -12 -12 -12
-16 -16 -16 -16 -16 -16 -16 -15 -15 -15 -15 -15 -15 -15 -15 -14 -14 -14 -15 -15 -15 -15 -14 -14 -14 -14 -14 -14 -14 -14 -14 -14 -14 -14 -14 -14 -14 -14 -13 -13 -13 -13
-18 -18 -17 -17 -17 -17 -17 -17 -16 -16 -16 -16 -16 -16 -16 -16 -15 -15 -15 -15 -16 -16 -16 -15 -15 -15 -15 -15 -15 -15 -15 -15 -15 -15 -15 -15 -14 -14 -14 -14 -14 -14
-19 -19 -18 -18 -18 -18 -18 -18 -17 -17 -17 -17 -17 -17 -17 -17 -16 -16 -16 -16 -16 -16 -16 -16 -16 -16 -16 -16 -16 -15 -15 -15 -15 -15 -15 -15 -15 -15 -15 -15 -15 -14
-19 -19 -19 -19 -19 -19 -19 -18 -18 -18 -18 -18 -18 -17 -17 -17 -17 -17 -17 -17 -17 -17 -17 -17 -17 -17 -17 -17 -16 -16 -16 -16 -16 -16 -16 -16 -16 -16 -16 -16 -16 -15
-20 -20 -20 -20 -20 -19 -19 -19 -19 -19 -19 -19 -18 -18 -18 -18 -18 -18 -17 -17 -17 -17 -17 -17 -17 -17 -17 -17 -17 -17 -17 -17 -17 -17 -17 -17 -17 -17 -17 -16 -16 -16
-21 -21 -21 -21 -20 -20 -20 -20 -20 -20 -19 -19 -19 -19 -19 -19 -19 -18 -18 -18 -18 -18 -18 -18 -17 -17 -17 -17 -17 -18 -18 -17 -17 -18 -18 -18 -18 -18 -17 -17 -17 -17
-22 -22 -22 -21 -21 -21 -21 -21 -21 -20 -20 -20 -20 -20 -20 -20 -20 -19 -19 -19 -19 -19 -18 -18 -18 -18 -17 -17 -17 -18 -18 -18 -18 -18 -18 -18 -18 -18 -18 -18 -18 -17
-22 -22 -22 -22 -22 -22 -22 -21 -21 -21 -21 -21 -21 -21 -20 -20 -20 -20 -20 -20 -20 -20 -20 -19 -19 -19 -18 -17 -17 -17 -18 -18 -18 -18 -18 -18 -18 -18 -18 -18 -18 -18
-23 -23 -23 -23 -22 -22 -22 -22 -22 -22 -22 -21 -21 -21 -21 -21 -21 -21 -21 -21 -20 -20 -20 -20 -20 -20 -19 -18 -17 -17 -18 -19 -18 -18 -18 -18 -19 -19 -19 -18 -18 -18
-23 -23 -23 -23 -23 -23 -23 -22 -22 -22 -22 -22 -22 -22 -21 -21 -21 -21 -21 -21 -21 -21 -21 -21 -21 -20 -20 -20 -18 -17 -18 -19 -19 -19 -19 -19 -19 -19 -19 -19 -19 -18
-23 -23 -23 -23 -23 -23 -23 -23 -23 -22 -22 -22 -22 -22 -22 -22 -21 -21 -21 -21 -21 -21 -21 -21 -21 -21 -21 -20 -19 -18 -17 -18 -19 -19 -19 -19 -19 -19 -19 -19 -19 -18
-23 -23 -23 -23 -23 -23 -23 -23 -23 -22 -22 -22 -22 -22 -22 -22 -22 -21 -21 -21 -21 -21 -21 -21 -21 -21 -21 -20 -20 -19 -18 -18 -19 -19 -19 -19 -19 -19 -19 -19 -19 -18
-23 -23 -23 -23 -23 -23 -23 -23 -23 -22 -22 -22 -22 -22 -22 -22 -21 -21 -21 -21 -21 -21 -21 -21 -21 -21 -21 -20 -20 -19 -18 -18 -19 -19 -19 -19 -19 -19 -19 -19 -18 -18
-24 -23 -23 -23 -23 -23 -23 -23 -23 -23 -22 -22 -22 -22 -22 -22 -22 -21 -21 -21 -21 -21 -21 -21 -21 -21 -21 -21 -21 -20 -19 -19 -19 -19 -19 -20 -19 -19 -19 -19 -18 -18
-24 -24 -24 -24 -23 -23 -23 -23 -23 -23 -23 -23 -22 -22 -22 -22 -22 -22 -21 -21 -21 -21 -21 -21 -21 -21 -21 -21 -21 -21 -20 -19 -19 -19 -19 -19 -19 -19 -19 -19 -19 -19
-24 -24 -24 -24 -24 -24 -24 -23 -23 -23 -23 -23 -23 -22 -22 -22 -22 -22 -22 -21 -21 -21 -21 -21 -22 -22 -22 -22 -21 -21 -21 -20 -19 -19 -19 -20 -19 -19 -20 -20 -19 -19
-24 -24 -24 -24 -24 -24 -24 -24 -23 -23 -23 -23 -23 -23 -23 -23 -22 -22 -22 -22 -22 -22 -22 -22 -22 -22 -22 -22 -22 -22 -22 -21 -20 -20 -20 -20 -20 -20 -20 -20 -20 -20
Height
3020 3018 3017 3016 3014 3013 3011 3010 3009 3008 3007 3006 3005 3004 3003 3003 3003 3002 3002 3002 3002 3001 3001 3001 3000 3000 3000 3000 2999 2999 2999 2999 2999 2999 2999 2999 3000 3000 3000 3000 3000 3000
3015 3013 3012 3011 3009 3008 3007 3005 3004 3003 3002 3001 3000 2999 2998 2998 2997 2997 2996 2996 2996 2995 2995 2995 2994 2994 2994 2994 2994 2994 2993 2994 2994 2994 2994 2994 2994 2994 2994 2994 2995 2995
3009 3007 3006 3005 3004 3003 3002 3001 3000 2998 2997 2996 2995 2994 2993 2993 2992 2992 2991 2990 2990 2990 2990 2989 2989 2989 2989 2989 2989 2988 2988 2988 2988 2989 2989 2989 2989 2989 2989 2990 2990 2990
3004 3002 3000 2999 2998 2997 2996 2996 2995 2994 2993 2991 2990 2990 2989 2988 2988 2987 2986 2985 2985 2985 2984 2984 2984 2984 2984 2984 2984 2984 2984 2984 2984 2984 2984 2984 2985 2985 2985 2986 2986 2986
2998 2997 2995 2994 2993 2992 2991 2990 2990 2989 2989 2987 2986 2985 2984 2984 2983 2982 2981 2981 2980 2980 2980 2980 2979 2979 2979 2979 2979 2979 2979 2979 2979 2980 2980 2980 2980 2981 2981 2982 2982 2982
2992 2991 2990 2989 2988 2987 2986 2985 2985 2985 2985 2984 2983 2982 2981 2980 2979 2978 2977 2977 2976 2976 2975 2975 2975 2976 2975 2975 2975 2975 2975 2975 2975 2975 2976 2976 2977 2977 2977 2977 2978 2978
2987 2986 2986 2985 2984 2983 2982 2981 2980 2979 2979 2979 2979 2978 2978 2977 2975 2974 2973 2972 2972 2972 2971 2971 2971 2971 2971 2970 2970 2970 2970 2971 2971 2971 2972 2972 2973 2973 2973 2973 2974 2974
2982 2981 2981 2980 2979 2979 2978 2977 2976 2975 2975 2974 2974 2973 2974 2974 2972 2970 2969 2968 2967 2967 2967 2966 2966 2966 2966 2966 2966 2966 2966 2966 2967 2967 2968 2968 2968 2969 2969 2969 2969 2970
2978 2977 2976 2976 2975 2974 2974 2973 2972 2971 2971 2970 2969 2969 2969 2970 2969 2967 2965 2964 2963 2963 2962 2962 2962 2962 2962 2961 2961 2962 2962 2962 2963 2963 2964 2964 2964 2964 2965 2965 2965 2965
2974 2973 2972 2972 2971 2970 2970 2969 2968 2968 2967 2966 2966 2965 2965 2965 2965 2965 2963 2962 2960 2959 2958 2958 2957 2958 2958 2958 2957 2957 2958 2958 2959 2959 2960 2960 2960 2960 2960 2960 2961 2961
2971 2970 2969 2968 2968 2967 2966 2966 2965 2964 2964 2963 2962 2962 2961 2961 2961 2961 2960 2960 2959 2958 2956 2955 2954 2954 2954 2954 2954 2954 2954 2954 2954 2955 2956 2956 2956 2956 2956 2956 2956 2956
2968 2967 2966 2965 2965 2964 2963 2962 2962 2961 2960 2960 2959 2959 2958 2958 2957 2957 2956 2956 2956 2956 2955 2953 2952 2951 2951 2950 2950 2950 2950 2950 2950 2951 2951 2952 2952 2952 2952 2952 2952 2952
2965 2964 2963 2962 2962 2961 2960 2959 2959 2958 2957 2957 2956 2955 2955 2954 2954 2953 2953 2952 2952 2952 2952 2951 2950 2949 2948 2947 2947 2947 2946 2946 2946 2947 2947 2948 2948 2948 2948 2948 2948 2947
2962 2961 2960 2959 2959 2958 2957 2956 2955 2955 2954 2953 2953 2952 2951 2951 2950 2949 2949 2948 2948 2947 2948 2947 2947 2946 2946 2945 2945 2944 2943 2943 2943 2943 2943 2943 2943 2944 2944 2944 2944 2943
2960 2959 2958 2957 2956 2955 2954 2953 2952 2951 2951 2950 2949 2949 2948 2947 2946 2946 2945 2945 2944 2943 2943 2942 2942 2941 2941 2942 2942 2941 2940 2939 2939 2939 2939 2939 2939 2939 2939 2939 2939 2939
2957 2956 2955 2954 2953 2952 2951 2950 2949 2948 2947 2947 2946 2945 2945 2944 2943 2942 2941 2941 2940 2939 2938 2938 2937 2936 2936 2936 2938 2937 2936 2936 2936 2935 2935 2935 2934 2934 2933 2933 2933 2933
2954 2953 2952 2951 2950 2949 2948 2947 2946 2945 2944 2943 2942 2942 2941 2941 2940 2939 2938 2937 2936 2935 2934 2933 2932 2932 2930 2930 2931 2932 2932 2931 2931 2931 2931 2930 2930 2929 2929 2928 2928 2928
2951 2950 2949 2948 2947 2946 2945 2944 2943 2942 2941 2939 2939 2938 2937 2937 2936 2935 2934 2933 2932 2931 2931 2930 2929 2928 2926 2924 2923 2925 2927 2927 2926 2926 2926 2926 2925 2925 2924 2924 2924 2923
2948 2947 2946 2945 2944 2943 2942 2941 2940 2938 2937 2936 2935 2934 2933 2933 2932 2931 2931 2930 2928 2927 2926 2926 2925 2923 2922 2920 2918 2918 2920 2922 2922 2921 2921 2921 2920 2920 2919 2919 2918 2918
2945 2943 2942 2941 2940 2939 2938 2936 2936 2934 2933 2932 2931 2930 2929 2928 2927 2927 2926 2925 2925 2923 2922 2921 2920 2919 2918 2916 2913 2912 2913 2915 2916 2916 2915 2915 2915 2914 2914 2913 2913 2912
2941 2939 2938 2936 2935 2934 2933 2931 2930 2929 2928 2927 2926 2925 2924 2923 2923 2922 2921 2921 2920 2919 2918 2916 2915 2914 2913 2911 2909 2907 2906 2908 2910 2910 2909 2909 2908 2908 2908 2907 2907 2907
2936 2935 2934 2932 2931 2929 2928 2926 2925 2923 2922 2921 2920 2919 2918 2917 2917 2916 2915 2915 2914 2913 2912 2911 2909 2908 2907 2906 2904 2901 2900 2901 2902 2903 2903 2902 2902 2901 2901 2901 2900 2900
2931 2930 2928 2927 2925 2924 2922 2921 2919 2918 2916 2915 2914 2913 2912 2911 2910 2909 2908 2908 2907 2907 2906 2905 2903 2902 2900 2899 2898 2896 2894 2894 2894 2896 2896 2896 2895 2894 2894 2894 2893 2893
2926 2924 2922 2921 2919 2917 2916 2915 2913 2912 2910 2909 2908 2906 2905 2904 2903 2902 2901 2900 2900 2899 2898 2898 2897 2895 2894 2892 2891 2889 2888 2886 2887 2888 2888 2888 2888 2888 2887 2886 2886 2885
2919 2918 2916 2915 2913 2911 2910 2908 2907 2906 2904 2903 2901 2900 2899 2898 2896 2895 2894 2893 2892 2891 2890 2890 2889 2888 2887 2885 2884 2883 2881 2879 2879 2880 2880 2879 2879 2879 2879 2879 2878 2877
2913 2912 2910 2908 2907 2905 2903 2902 2900 2899 2898 2896 2895 2894 2892 2891 2890 2889 2887 2886 2885 2883 2882 2882 2881 2880 2879 2878 2877 2876 2874 2873 2872 2871 2871 2871 2871 2871 2871 2870 2870 2869
Wind_Speed
39 38 37 38 41 43 44 44 44 44 45 45 45 44 44 43 42 41 41 41 40 40 40 39 39 39 39 39 38 38 38 38 38 37 37 37 37 36 35 35 36 36
39 38 37 36 37 41 44 45 45 45 45 44 43 42 41 40 39 39 39 39 39 39 38 38 38 38 38 38 37 37 37 37 37 36 35 35 35 35 35 34 33 32
39 38 37 35 35 38 41 44 45 45 45 43 42 40 38 37 36 36 37 38 38 37 36 36 36 36 36 35 35 34 33 33 33 33 33 33 33 33 33 31 29 28
38 38 37 36 35 36 38 41 43 44 43 42 40 37 35 33 33 34 36 36 35 33 32 32 33 32 31 30 29 28 27 27 29 30 30 30 29 28 28 27 26 26
37 37 36 36 35 35 36 37 38 40 40 39 37 35 33 32 32 33 33 32 30 28 28 28 28 27 26 25 24 24 25 27 28 28 28 27 25 23 23 23 24 24
36 36 36 36 35 35 35 34 35 35 35 35 35 35 34 32 31 31 31 30 28 27 27 27 26 24 24 24 25 25 26 26 25 24 23 23 22 22 22 22 23 23
34 35 35 35 36 35 34 34 34 34 34 34 35 36 35 33 31 30 29 28 28 28 28 27 26 25 25 25 25 25 25 24 22 21 20 20 21 22 22 23 23 23
34 34 34 35 35 35 35 34 35 35 35 35 36 36 35 34 31 29 29 29 29 29 29 28 27 26 25 25 24 23 22 22 21 20 20 20 21 21 22 23 23 24
33 33 34 34 34 35 35 35 34 34 35 35 34 34 34 34 31 28 28 29 28 28 28 28 27 25 24 22 22 21 20 20 21 21 21 21 21 22 22 23 24 25
30 31 31 31 32 33 33 33 33 32 32 32 31 30 31 32 31 28 26 27 27 26 26 26 25 24 22 21 21 21 21 21 21 21 22 22 22 23 23 24 25 25
27 27 28 28 28 28 29 29 29 29 29 29 29 28 28 28 29 28 27 26 25 23 23 23 22 21 21 20 20 21 21 21 22 22 23 24 24 25 25 26 26 27
24 24 24 25 25 25 25 25 26 26 26 27 27 27 26 26 26 26 27 26 25 24 23 21 21 20 20 20 21 21 21 22 22 23 24 25 26 26 27 28 28 28
23 23 23 24 24 24 24 24 24 24 25 25 26 26 26 26 26 25 26 26 26 26 25 24 22 21 21 20 21 22 22 23 23 24 25 25 26 27 28 28 29 29
23 23 23 23 24 24 24 24 24 24 25 25 25 25 26 26 26 26 26 26 26 26 26 26 25 25 23 22 22 23 23 24 25 25 25 26 27 27 28 28 29 29
23 23 23 23 24 24 24 24 24 25 25 25 25 25 25 26 26 26 27 27 27 27 27 27 27 28 28 27 26 25 25 26 26 27 27 27 27 28 28 28 29 29
24 24 24 24 24 24 24 24 24 25 25 25 25 25 25 26 25 26 26 26 27 27 27 28 29 30 31 31 30 28 27 28 28 28 28 28 28 29 29 29 29 29
24 24 24 24 24 24 24 24 25 25 25 25 26 26 26 26 26 27 27 27 27 28 28 29 30 31 33 34 34 30 29 29 29 29 29 29 29 29 29 29 29 30
24 24 24 24 24 24 25 25 25 26 26 26 27 27 27 28 28 28 29 29 30 30 30 31 31 32 33 36 37 34 30 29 29 30 30 30 30 30 30 30 30 30
25 25 25 25 26 26 26 26 27 27 28 28 28 29 29 30 30 31 31 31 32 32 33 33 33 33 34 36 39 38 33 30 30 31 31 32 32 32 32 32 32 32
27 27 28 28 29 29 29 29 29 30 30 30 31 31 31 31 32 32 33 33 33 34 34 35 35 35 36 37 39 40 37 34 33 33 34 35 35 35 35 36 36 36
30 31 31 32 32 32 32 33 33 33 33 33 33 34 34 34 34 34 35 35 35 35 36 37 37 38 38 39 41 42 41 39 38 37 37 38 39 39 39 39 39 40
34 34 35 35 35 36 36 36 36 36 36 37 37 37 37 38 38 38 38 38 38 38 38 39 39 40 40 41 43 45 45 44 42 41 40 41 41 42 42 43 43 43
38 39 39 39 39 40 40 40 40 40 40 40 40 40 41 41 41 41 41 41 40 40 40 40 40 41 42 42 43 45 47 47 46 45 43 43 44 44 45 46 46 46
43 43 43 43 43 43 43 43 43 42 43 43 42 42 43 43 43 43 43 43 43 43 42 42 42 42 43 43 44 46 48 50 50 48 46 46 47 47 48 48 49 49
46 46 45 45 45 45 45 45 44 44 44 44 44 44 44 44 45 45 46 46 46 46 45 45 45 44 44 45 45 46 48 51 52 51 50 50 50 49 50 50 51 51
47 47 47 47 46 46 46 46 46 46 46 46 46 46 46 46 46 46 47 47 47 48 48 47 47 46 45 46 46 46 48 50 52 53 52 52 52 52 51 51 52 52
Wind_Direction
294 292 290 287 284 280 276 272 270 269 268 267 266 265 264 263 262 261 261 261 261 262 263 265 266 267 269 270 270 270 270 270 270 270 269 268 267 266 266 265 264 263
293 291 289 286 284 281 278 275 272 270 269 267 266 265 264 263 262 261 261 261 262 262 263 264 265 265 266 266 266 266 266 266 266 266 266 265 265 266 266 266 265 262
291 289 287 285 282 281 279 277 274 271 269 266 265 264 264 264 263 262 262 262 263 264 264 263 263 263 262 262 262 262 262 262 261 262 262 263 264 264 265 264 264 264
287 285 284 282 280 279 278 277 274 272 269 266 264 262 260 260 261 262 263 263 263 263 262 260 260 260 260 260 259 258 258 257 258 260 262 263 264 263 261 260 262 264
285 282 281 279 277 275 273 272 271 269 268 265 261 257 256 258 258 259 260 259 258 257 255 255 257 256 254 253 252 253 255 258 261 263 264 264 261 259 259 260 263 264
284 281 278 276 273 270 268 265 263 263 263 261 257 256 257 256 252 251 252 253 252 249 248 250 251 249 247 248 249 253 257 260 263 265 265 264 260 258 259 261 263 263
279 276 272 269 267 264 262 259 257 256 256 254 254 258 258 250 243 241 244 246 246 244 243 245 245 243 243 246 249 253 256 258 260 262 263 263 262 262 262 261 262 263
270 267 264 262 260 258 256 254 253 253 253 251 251 254 253 246 240 238 240 240 239 238 240 241 242 241 242 244 246 250 253 256 258 259 260 260 261 262 262 262 262 263
264 261 259 258 256 256 255 254 252 252 252 251 250 249 248 246 244 240 238 237 235 235 237 239 238 239 239 241 243 246 249 253 257 258 259 260 260 260 260 261 262 262
262 260 259 258 257 257 256 256 255 254 252 251 250 248 246 246 246 245 243 241 238 237 236 236 236 237 239 242 244 246 250 254 257 260 261 261 261 261 261 261 261 261
262 262 261 261 260 260 259 258 257 256 254 253 252 251 249 248 248 249 249 248 247 244 240 238 238 240 243 247 250 252 254 257 259 261 262 262 263 264 264 263 263 263
264 264 263 263 263 263 262 262 261 260 259 258 257 256 256 255 254 253 252 251 252 253 253 251 248 247 248 251 254 256 257 259 260 261 263 264 264 265 266 266 266 264
267 267 266 266 266 266 266 266 265 265 264 264 263 263 262 261 260 259 257 256 256 257 260 262 261 258 255 254 256 259 260 261 261 262 263 265 265 265 265 265 265 264
272 271 271 271 270 270 270 269 269 268 267 267 266 265 265 264 262 261 259 259 259 260 263 266 268 267 265 263 261 262 263 263 264 265 265 265 265 264 264 263 263 263
278 278 278 276 276 275 274 273 272 271 270 269 267 266 265 264 262 261 260 259 259 261 262 265 268 270 271 270 267 264 264 264 265 266 266 266 266 265 265 264 264 264
283 283 282 281 280 279 278 277 276 274 273 271 270 269 267 266 265 264 263 263 262 263 264 265 267 268 269 269 267 264 263 263 263 264 265 265 266 266 266 267 267 267
285 285 284 284 283 281 281 280 278 277 276 275 274 273 272 272 272 272 272 272 272 272 271 271 271 271 270 269 266 264 263 263 263 264 265 265 265 265 266 267 268 269
285 285 284 284 283 282 281 280 280 279 278 277 277 276 276 276 276 277 278 278 278 278 277 277 276 276 275 273 270 267 265 266 266 266 267 267 267 268 267 268 268 268
284 284 284 284 283 283 283 282 281 281 280 280 279 278 278 278 277 278 278 278 279 278 278 278 278 277 277 276 273 270 268 269 270 270 270 270 271 272 271 271 271 270
285 285 285 285 285 285 285 285 284 283 283 282 281 280 279 278 278 277 277 277 278 278 278 279 279 279 279 278 276 273 270 272 274 274 274 273 274 274 274 273 273 272
288 288 288 288 288 287 287 287 286 285 285 284 283 282 281 280 279 278 278 278 278 278 278 279 279 280 280 280 279 277 275 276 277 278 277 277 276 276 275 275 274 273
291 291 291 291 290 290 290 290 289 289 288 287 286 285 284 283 282 281 281 280 280 280 280 280 280 280 280 281 281 280 279 279 279 279 279 279 279 278 277 276 275 274
294 294 293 293 293 293 292 292 292 291 290 290 289 288 287 287 286 285 284 283 283 282 282 281 281 281 281 281 281 281 280 280 280 280 280 280 279 279 278 277 276 276
294 294 294 294 293 293 293 292 292 291 291 290 290 289 289 288 288 287 286 286 285 285 284 283 283 282 282 281 281 281 281 280 280 280 280 280 279 278 278 277 277 276
293 293 293 292 292 292 292 291 291 291 290 290 289 289 288 288 288 287 287 287 286 285 285 284 284 283 282 282 281 281 281 281 281 281 280 280 279 278 277 277 277 277
292 292 291 291 291 291 290 290 290 289 289 288 288 288 287 287 286 286 285 285 285 284 284 284 283 283 283 282 281 281 280 280 281 281 280 279 279 278 277 276 276 276